TimeCST,TemperatureF,Dew PointF,Humidity,Sea Level PressureIn,VisibilityMPH,Wind Direction,Wind SpeedMPH,Gust SpeedMPH,PrecipitationIn,Events,Conditions,WindDirDegrees,DateUTC
12:15 AM,27.3,18.5,69,29.98,10.0,SE,9.2,-,N/A,,Clear,140,2013-02-18 06:15:00
12:35 AM,27.1,18.9,71,29.98,10.0,SE,8.1,-,N/A,,Clear,140,2013-02-18 06:35:00
12:55 AM,27.5,19.0,71,29.97,10.0,SE,8.1,-,N/A,,Clear,140,2013-02-18 06:55:00
1:15 AM,27.7,19.0,70,29.96,10.0,SSE,9.2,-,N/A,,Clear,150,2013-02-18 07:15:00
1:35 AM,28.2,18.9,68,29.95,10.0,SE,8.1,-,N/A,,Clear,140,2013-02-18 07:35:00
1:55 AM,28.4,18.9,67,29.94,10.0,SE,8.1,-,N/A,,Clear,140,2013-02-18 07:55:00
2:15 AM,28.8,18.7,66,29.92,10.0,SSE,9.2,-,N/A,,Clear,150,2013-02-18 08:15:00
2:35 AM,30.0,18.5,62,29.91,10.0,SE,9.2,-,N/A,,Clear,140,2013-02-18 08:35:00
2:55 AM,30.0,18.5,62,29.90,10.0,SSE,9.2,-,N/A,,Clear,150,2013-02-18 08:55:00
3:15 AM,30.4,18.7,62,29.89,10.0,SSE,9.2,-,N/A,,Clear,160,2013-02-18 09:15:00
3:35 AM,31.5,18.5,59,29.87,10.0,SSE,9.2,-,N/A,,Clear,150,2013-02-18 09:35:00
3:55 AM,31.1,18.7,60,29.86,10.0,SSE,10.4,-,N/A,,Clear,150,2013-02-18 09:55:00
4:15 AM,31.6,18.9,59,29.86,10.0,SSE,10.4,-,N/A,,Clear,150,2013-02-18 10:15:00
4:35 AM,32.0,19.0,59,29.85,10.0,SSE,9.2,-,N/A,,Clear,160,2013-02-18 10:35:00
4:55 AM,32.0,19.4,60,29.84,10.0,SSE,11.5,-,N/A,,Clear,160,2013-02-18 10:55:00
5:15 AM,32.0,19.6,60,29.83,10.0,SSE,10.4,-,N/A,,Clear,150,2013-02-18 11:15:00
5:35 AM,32.0,20.1,62,29.82,10.0,SSE,9.2,-,N/A,,Clear,150,2013-02-18 11:35:00
5:55 AM,32.0,21.2,64,29.81,10.0,SSE,11.5,17.3,N/A,,Clear,150,2013-02-18 11:55:00
6:15 AM,32.0,21.2,64,29.81,10.0,SSE,10.4,20.7,N/A,,Clear,160,2013-02-18 12:15:00
6:35 AM,32.0,21.2,64,29.80,10.0,SSE,11.5,-,N/A,,Clear,160,2013-02-18 12:35:00
6:55 AM,32.0,23.0,69,29.79,10.0,SSE,13.8,21.9,N/A,,Clear,160,2013-02-18 12:55:00
7:15 AM,33.1,23.5,68,29.78,10.0,SSE,11.5,17.3,N/A,,Clear,160,2013-02-18 13:15:00
7:35 AM,34.5,24.4,67,29.78,10.0,South,12.7,19.6,N/A,,Clear,170,2013-02-18 13:35:00
7:55 AM,36.1,25.3,65,29.77,10.0,SSE,11.5,19.6,N/A,,Clear,160,2013-02-18 13:55:00
8:15 AM,37.4,26.6,65,29.77,10.0,South,10.4,18.4,N/A,,Clear,170,2013-02-18 14:15:00
8:35 AM,38.3,27.3,65,29.76,10.0,South,9.2,17.3,N/A,,Clear,170,2013-02-18 14:35:00
8:55 AM,39.9,28.4,63,29.76,10.0,South,10.4,16.1,N/A,,Clear,180,2013-02-18 14:55:00
9:15 AM,42.3,30.4,63,29.74,10.0,South,15.0,-,N/A,,Clear,180,2013-02-18 15:15:00
9:35 AM,44.8,32.0,61,29.73,10.0,South,16.1,23.0,N/A,,Clear,190,2013-02-18 15:35:00
9:55 AM,46.8,33.1,59,29.73,10.0,SSW,10.4,21.9,N/A,,Clear,200,2013-02-18 15:55:00
10:15 AM,47.7,33.8,59,29.73,10.0,SSW,16.1,21.9,N/A,,Clear,200,2013-02-18 16:15:00
10:35 AM,48.6,34.7,59,29.72,10.0,South,18.4,24.2,N/A,,Clear,190,2013-02-18 16:35:00
10:55 AM,50.2,35.6,57,29.71,10.0,South,15.0,23.0,N/A,,Clear,190,2013-02-18 16:55:00
11:15 AM,51.6,36.5,56,29.70,10.0,South,18.4,27.6,N/A,,Clear,190,2013-02-18 17:15:00
11:35 AM,51.8,36.9,57,29.69,10.0,South,18.4,27.6,N/A,,Clear,190,2013-02-18 17:35:00
11:55 AM,51.3,37.4,59,29.68,10.0,SSW,12.7,26.5,N/A,,Clear,210,2013-02-18 17:55:00
12:15 PM,52.5,38.7,59,29.66,10.0,South,17.3,24.2,N/A,,Mostly Cloudy,190,2013-02-18 18:15:00
12:35 PM,51.8,39.2,62,29.65,10.0,SSW,17.3,29.9,N/A,,Mostly Cloudy,200,2013-02-18 18:35:00
12:55 PM,51.3,39.7,65,29.65,10.0,SSW,18.4,27.6,N/A,,Overcast,200,2013-02-18 18:55:00
1:15 PM,51.1,40.3,67,29.64,10.0,SSW,11.5,25.3,N/A,,Overcast,200,2013-02-18 19:15:00
1:35 PM,51.3,41.0,68,29.62,10.0,South,16.1,23.0,N/A,,Overcast,190,2013-02-18 19:35:00
1:55 PM,51.3,41.5,69,29.61,10.0,South,11.5,21.9,N/A,,Overcast,190,2013-02-18 19:55:00
2:15 PM,51.6,42.3,70,29.60,10.0,SSW,13.8,21.9,N/A,,Overcast,200,2013-02-18 20:15:00
2:35 PM,51.8,42.8,71,29.59,10.0,SSW,11.5,20.7,N/A,,Overcast,200,2013-02-18 20:35:00
2:55 PM,51.8,43.3,73,29.58,10.0,South,15.0,25.3,N/A,,Overcast,190,2013-02-18 20:55:00
3:15 PM,52.2,43.7,73,29.58,10.0,SSW,9.2,21.9,N/A,,Overcast,200,2013-02-18 21:15:00
3:35 PM,50.2,43.3,77,29.57,10.0,South,13.8,18.4,N/A,,Overcast,180,2013-02-18 21:35:00
3:55 PM,49.5,43.3,79,29.56,10.0,South,13.8,20.7,N/A,,Overcast,170,2013-02-18 21:55:00
4:15 PM,50.0,43.3,78,29.54,10.0,South,13.8,25.3,N/A,,Overcast,180,2013-02-18 22:15:00
4:35 PM,49.8,43.7,79,29.53,10.0,South,20.7,28.8,N/A,,Overcast,190,2013-02-18 22:35:00
4:55 PM,49.1,43.5,81,29.52,10.0,South,18.4,24.2,N/A,,Overcast,190,2013-02-18 22:55:00
5:15 PM,49.1,43.7,82,29.52,10.0,South,20.7,28.8,N/A,,Overcast,180,2013-02-18 23:15:00
5:35 PM,48.6,43.9,84,29.50,10.0,South,21.9,33.4,N/A,,Overcast,190,2013-02-18 23:35:00
5:55 PM,48.6,44.1,84,29.49,10.0,South,25.3,35.7,N/A,,Overcast,190,2013-02-18 23:55:00
6:15 PM,48.2,44.1,86,29.48,10.0,South,20.7,32.2,N/A,Rain,Light Rain,180,2013-02-19 00:15:00
6:35 PM,48.2,44.6,87,29.48,10.0,South,18.4,34.5,N/A,Rain,Rain,190,2013-02-19 00:35:00
6:55 PM,46.6,44.6,93,29.47,4.0,South,20.7,33.4,0.01,Rain,Rain,190,2013-02-19 00:55:00
7:15 PM,46.0,44.2,93,29.46,5.0,South,18.4,31.1,0.03,Rain,Rain,180,2013-02-19 01:15:00
7:35 PM,45.7,44.1,94,29.44,5.0,South,20.7,27.6,0.07,Rain,Rain,180,2013-02-19 01:35:00
7:55 PM,45.7,43.9,93,29.43,5.0,South,19.6,31.1,0.10,Rain,Light Rain,180,2013-02-19 01:55:00
8:15 PM,45.5,43.7,93,29.44,5.0,SW,13.8,28.8,0.03,Rain,Heavy Rain,220,2013-02-19 02:15:00
8:35 PM,40.1,38.1,93,29.46,5.0,WNW,9.2,21.9,0.09,Rain,Light Rain,290,2013-02-19 02:35:00
8:55 PM,38.5,36.9,94,29.48,7.0,West,10.4,-,0.10,,Drizzle,280,2013-02-19 02:55:00
9:15 PM,37.8,36.1,94,29.49,5.0,West,18.4,27.6,N/A,,Drizzle,270,2013-02-19 03:15:00
9:35 PM,35.2,33.1,92,29.51,5.0,West,13.8,20.7,N/A,Rain,Light Rain,270,2013-02-19 03:35:00
9:55 PM,33.8,32.2,94,29.51,5.0,West,15.0,21.9,N/A,Rain,Light Rain,270,2013-02-19 03:55:00
10:15 PM,33.3,31.8,94,29.54,10.0,West,15.0,26.5,N/A,Rain,Light Rain,270,2013-02-19 04:15:00
10:35 PM,32.9,30.9,92,29.55,10.0,West,12.7,26.5,N/A,,Overcast,280,2013-02-19 04:35:00
10:55 PM,31.6,28.8,89,29.57,10.0,West,19.6,28.8,N/A,,Overcast,270,2013-02-19 04:55:00
11:15 PM,30.2,27.3,89,29.59,2.5,West,20.7,31.1,N/A,Snow,Light Snow,280,2013-02-19 05:15:00
11:35 PM,29.1,25.7,87,29.60,7.0,West,20.7,28.8,N/A,Snow,Light Snow,270,2013-02-19 05:35:00
11:55 PM,27.9,23.9,85,29.61,10.0,West,19.6,28.8,N/A,,Overcast,270,2013-02-19 05:55:00